Year,Month,Day,Hour,Minute,Value (Times are PST for temperature in C)
2016,03,30,00,00,4.70
2016,03,30,00,01,4.70
2016,03,30,00,02,4.70
2016,03,30,00,03,4.70
2016,03,30,00,04,4.70
2016,03,30,00,05,4.70
2016,03,30,00,06,4.70
2016,03,30,00,07,4.70
2016,03,30,00,08,4.70
2016,03,30,00,09,4.60
2016,03,30,00,10,4.60
2016,03,30,00,11,4.60
2016,03,30,00,12,4.60
2016,03,30,00,13,4.60
2016,03,30,00,14,4.60
2016,03,30,00,15,4.60
2016,03,30,00,16,4.60
2016,03,30,00,17,4.60
2016,03,30,00,18,4.60
2016,03,30,00,19,4.60
2016,03,30,00,20,4.50
2016,03,30,00,21,4.50
2016,03,30,00,22,4.50
2016,03,30,00,23,4.50
2016,03,30,00,24,4.50
2016,03,30,00,25,4.50
2016,03,30,00,26,4.50
2016,03,30,00,27,4.50
2016,03,30,00,28,4.50
2016,03,30,00,29,4.50
2016,03,30,00,30,4.40
2016,03,30,00,31,4.40
2016,03,30,00,32,4.40
2016,03,30,00,33,4.40
2016,03,30,00,34,4.40
2016,03,30,00,35,4.40
2016,03,30,00,36,4.40
2016,03,30,00,37,4.40
2016,03,30,00,38,4.40
2016,03,30,00,39,4.40
2016,03,30,00,40,4.40
2016,03,30,00,41,4.30
2016,03,30,00,42,4.30
2016,03,30,00,43,4.30
2016,03,30,00,44,4.30
2016,03,30,00,45,4.30
2016,03,30,00,46,4.30
2016,03,30,00,47,4.30
2016,03,30,00,48,4.30
2016,03,30,00,49,4.30
2016,03,30,00,50,4.30
2016,03,30,00,51,4.30
2016,03,30,00,52,4.30
2016,03,30,00,53,4.30
2016,03,30,00,54,4.30
2016,03,30,00,55,4.30
2016,03,30,00,56,4.30
2016,03,30,00,57,4.30
2016,03,30,00,58,4.30
2016,03,30,00,59,4.30
2016,03,30,01,00,4.30
2016,03,30,01,01,4.30
2016,03,30,01,02,4.30
2016,03,30,01,03,4.30
2016,03,30,01,04,4.30
2016,03,30,01,05,4.30
2016,03,30,01,06,4.30
2016,03,30,01,07,4.30
2016,03,30,01,08,4.20
2016,03,30,01,09,4.20
2016,03,30,01,10,4.20
2016,03,30,01,11,4.20
2016,03,30,01,12,4.20
2016,03,30,01,13,4.20
2016,03,30,01,14,4.20
2016,03,30,01,15,4.20
2016,03,30,01,16,4.20
2016,03,30,01,17,4.20
2016,03,30,01,18,4.20
2016,03,30,01,19,4.20
2016,03,30,01,20,4.20
2016,03,30,01,21,4.10
2016,03,30,01,22,4.10
2016,03,30,01,23,4.10
2016,03,30,01,24,4.10
2016,03,30,01,25,4.10
2016,03,30,01,26,4.10
2016,03,30,01,27,4.10
2016,03,30,01,28,4.10
2016,03,30,01,29,4.10
2016,03,30,01,30,4.10
2016,03,30,01,31,4.10
2016,03,30,01,32,4.10
2016,03,30,01,33,4.10
2016,03,30,01,34,4.10
2016,03,30,01,35,4.10
2016,03,30,01,36,4.10
2016,03,30,01,37,4.10
2016,03,30,01,38,4.10
2016,03,30,01,39,4.10
2016,03,30,01,40,4.10
2016,03,30,01,41,4.10
2016,03,30,01,42,4.10
2016,03,30,01,43,4.10
2016,03,30,01,44,4.10
2016,03,30,01,45,4.10
2016,03,30,01,46,4.00
2016,03,30,01,47,4.00
2016,03,30,01,48,4.00
2016,03,30,01,49,4.00
2016,03,30,01,50,4.00
2016,03,30,01,51,4.00
2016,03,30,01,52,4.00
2016,03,30,01,53,4.00
2016,03,30,01,54,3.90
2016,03,30,01,55,3.90
2016,03,30,01,56,3.90
2016,03,30,01,57,3.90
2016,03,30,01,58,3.90
2016,03,30,01,59,3.90
2016,03,30,02,00,3.90
2016,03,30,02,01,3.90
2016,03,30,02,02,3.90
2016,03,30,02,03,3.90
2016,03,30,02,04,3.90
2016,03,30,02,05,3.90
2016,03,30,02,06,3.90
2016,03,30,02,07,3.90
2016,03,30,02,08,3.90
2016,03,30,02,09,3.90
2016,03,30,02,10,3.80
2016,03,30,02,11,3.80
2016,03,30,02,12,3.80
2016,03,30,02,13,3.80
2016,03,30,02,14,3.80
2016,03,30,02,15,3.80
2016,03,30,02,16,3.80
2016,03,30,02,17,3.80
2016,03,30,02,18,3.80
2016,03,30,02,19,3.80
2016,03,30,02,20,3.70
2016,03,30,02,21,3.70
2016,03,30,02,22,3.70
2016,03,30,02,23,3.70
2016,03,30,02,24,3.70
2016,03,30,02,25,3.70
2016,03,30,02,26,3.70
2016,03,30,02,27,3.70
2016,03,30,02,28,3.70
2016,03,30,02,29,3.70
2016,03,30,02,30,3.70
2016,03,30,02,31,3.70
2016,03,30,02,32,3.70
2016,03,30,02,33,3.70
2016,03,30,02,34,3.70
2016,03,30,02,35,3.70
2016,03,30,02,36,3.70
2016,03,30,02,37,3.70
2016,03,30,02,38,3.60
2016,03,30,02,39,3.60
2016,03,30,02,40,3.60
2016,03,30,02,41,3.60
2016,03,30,02,42,3.60
2016,03,30,02,43,3.60
2016,03,30,02,44,3.60
2016,03,30,02,45,3.60
2016,03,30,02,46,3.60
2016,03,30,02,47,3.60
2016,03,30,02,48,3.60
2016,03,30,02,49,3.60
2016,03,30,02,50,3.60
2016,03,30,02,51,3.60
2016,03,30,02,52,3.60
2016,03,30,02,53,3.50
2016,03,30,02,54,3.50
2016,03,30,02,55,3.50
2016,03,30,02,56,3.50
2016,03,30,02,57,3.50
2016,03,30,02,58,3.50
2016,03,30,02,59,3.50
2016,03,30,03,00,3.50
2016,03,30,03,01,3.50
2016,03,30,03,02,3.50
2016,03,30,03,03,3.50
2016,03,30,03,04,3.50
2016,03,30,03,05,3.50
2016,03,30,03,06,3.50
2016,03,30,03,07,3.50
2016,03,30,03,08,3.50
2016,03,30,03,09,3.50
2016,03,30,03,10,3.50
2016,03,30,03,11,3.50
2016,03,30,03,12,3.50
2016,03,30,03,13,3.50
2016,03,30,03,14,3.50
2016,03,30,03,15,3.50
2016,03,30,03,16,3.50
2016,03,30,03,17,3.50
2016,03,30,03,18,3.50
2016,03,30,03,19,3.50
2016,03,30,03,20,3.50
2016,03,30,03,21,3.50
2016,03,30,03,22,3.50
2016,03,30,03,23,3.40
2016,03,30,03,24,3.40
2016,03,30,03,25,3.40
2016,03,30,03,26,3.40
2016,03,30,03,27,3.40
2016,03,30,03,28,3.40
2016,03,30,03,29,3.40
2016,03,30,03,30,3.40
2016,03,30,03,31,3.40
2016,03,30,03,32,3.40
2016,03,30,03,33,3.40
2016,03,30,03,34,3.40
2016,03,30,03,35,3.40
2016,03,30,03,36,3.40
2016,03,30,03,37,3.40
2016,03,30,03,38,3.40
2016,03,30,03,39,3.40
2016,03,30,03,40,3.40
2016,03,30,03,41,3.30
2016,03,30,03,42,3.30
2016,03,30,03,43,3.30
2016,03,30,03,44,3.30
2016,03,30,03,45,3.30
2016,03,30,03,46,3.30
2016,03,30,03,47,3.30
2016,03,30,03,48,3.30
2016,03,30,03,49,3.30
2016,03,30,03,50,3.30
2016,03,30,03,51,3.30
2016,03,30,03,52,3.30
2016,03,30,03,53,3.30
2016,03,30,03,54,3.30
2016,03,30,03,55,3.30
2016,03,30,03,56,3.30
2016,03,30,03,57,3.30
2016,03,30,03,58,3.30
2016,03,30,03,59,3.20
2016,03,30,04,00,3.20
2016,03,30,04,01,3.20
2016,03,30,04,02,3.20
2016,03,30,04,03,3.20
2016,03,30,04,04,3.20
2016,03,30,04,05,3.20
2016,03,30,04,06,3.20
2016,03,30,04,07,3.20
2016,03,30,04,08,3.20
2016,03,30,04,09,3.20
2016,03,30,04,10,3.20
2016,03,30,04,11,3.20
2016,03,30,04,12,3.20
2016,03,30,04,13,3.20
2016,03,30,04,14,3.10
2016,03,30,04,15,3.10
2016,03,30,04,16,3.10
2016,03,30,04,17,3.10
2016,03,30,04,18,3.10
2016,03,30,04,19,3.10
2016,03,30,04,20,3.10
2016,03,30,04,21,3.10
2016,03,30,04,22,3.10
2016,03,30,04,23,3.10
2016,03,30,04,24,3.10
2016,03,30,04,25,3.10
2016,03,30,04,26,3.10
2016,03,30,04,27,3.10
2016,03,30,04,28,3.10
2016,03,30,04,29,3.10
2016,03,30,04,30,3.10
2016,03,30,04,31,3.10
2016,03,30,04,32,3.10
2016,03,30,04,33,3.10
2016,03,30,04,34,3.10
2016,03,30,04,35,3.10
2016,03,30,04,36,3.10
2016,03,30,04,37,3.10
2016,03,30,04,38,3.10
2016,03,30,04,39,3.10
2016,03,30,04,40,3.10
2016,03,30,04,41,3.10
2016,03,30,04,42,3.10
2016,03,30,04,43,3.10
2016,03,30,04,44,3.10
2016,03,30,04,45,3.10
2016,03,30,04,46,3.10
2016,03,30,04,47,3.10
2016,03,30,04,48,3.10
2016,03,30,04,49,3.10
2016,03,30,04,50,3.10
2016,03,30,04,51,3.00
2016,03,30,04,52,3.00
2016,03,30,04,53,3.00
2016,03,30,04,54,3.00
2016,03,30,04,55,2.90
2016,03,30,04,56,2.90
2016,03,30,04,57,2.90
2016,03,30,04,58,2.90
2016,03,30,04,59,2.90
2016,03,30,05,00,2.90
2016,03,30,05,01,2.90
2016,03,30,05,02,2.90
2016,03,30,05,03,3.00
2016,03,30,05,04,3.00
2016,03,30,05,05,3.00
2016,03,30,05,06,3.00
2016,03,30,05,07,3.00
2016,03,30,05,08,3.00
2016,03,30,05,09,3.00
2016,03,30,05,10,3.00
2016,03,30,05,11,3.00
2016,03,30,05,12,3.00
2016,03,30,05,13,3.00
2016,03,30,05,14,3.00
2016,03,30,05,15,2.90
2016,03,30,05,16,2.90
2016,03,30,05,17,2.90
2016,03,30,05,18,2.90
2016,03,30,05,19,2.90
2016,03,30,05,20,2.90
2016,03,30,05,21,2.90
2016,03,30,05,22,2.90
2016,03,30,05,23,2.90
2016,03,30,05,24,2.90
2016,03,30,05,25,3.00
2016,03,30,05,26,3.00
2016,03,30,05,27,3.00
2016,03,30,05,28,3.00
2016,03,30,05,29,3.00
2016,03,30,05,30,3.00
2016,03,30,05,31,3.00
2016,03,30,05,32,3.00
2016,03,30,05,33,3.00
2016,03,30,05,34,2.90
2016,03,30,05,35,2.90
2016,03,30,05,36,2.90
2016,03,30,05,37,2.90
2016,03,30,05,38,2.90
2016,03,30,05,39,2.90
2016,03,30,05,40,2.90
2016,03,30,05,41,2.90
2016,03,30,05,42,2.90
2016,03,30,05,43,2.90
2016,03,30,05,44,2.90
2016,03,30,05,45,2.90
2016,03,30,05,46,2.90
2016,03,30,05,47,2.90
2016,03,30,05,48,2.90
2016,03,30,05,49,2.90
2016,03,30,05,50,2.90
2016,03,30,05,51,2.90
2016,03,30,05,52,2.90
2016,03,30,05,53,2.90
2016,03,30,05,54,2.90
2016,03,30,05,55,2.90
2016,03,30,05,56,2.90
2016,03,30,05,57,2.80
2016,03,30,05,58,2.80
2016,03,30,05,59,2.80
2016,03,30,06,00,2.80
2016,03,30,06,01,2.80
2016,03,30,06,02,2.80
2016,03,30,06,03,2.80
2016,03,30,06,04,2.80
2016,03,30,06,05,2.80
2016,03,30,06,06,2.70
2016,03,30,06,07,2.70
2016,03,30,06,08,2.70
2016,03,30,06,09,2.70
2016,03,30,06,10,2.70
2016,03,30,06,11,2.70
2016,03,30,06,12,2.70
2016,03,30,06,13,2.70
2016,03,30,06,14,2.70
2016,03,30,06,15,2.70
2016,03,30,06,16,2.70
2016,03,30,06,17,2.70
2016,03,30,06,18,2.70
2016,03,30,06,19,2.70
2016,03,30,06,20,2.70
2016,03,30,06,21,2.70
2016,03,30,06,22,2.70
2016,03,30,06,23,2.70
2016,03,30,06,24,2.70
2016,03,30,06,25,2.70
2016,03,30,06,26,2.70
2016,03,30,06,27,2.70
2016,03,30,06,28,2.70
2016,03,30,06,29,2.70
2016,03,30,06,30,2.70
2016,03,30,06,31,2.70
2016,03,30,06,32,2.70
2016,03,30,06,33,2.70
2016,03,30,06,34,2.70
2016,03,30,06,35,2.60
2016,03,30,06,36,2.60
2016,03,30,06,37,2.60
2016,03,30,06,38,2.60
2016,03,30,06,39,2.60
2016,03,30,06,40,2.60
2016,03,30,06,41,2.60
2016,03,30,06,42,2.60
2016,03,30,06,43,2.60
2016,03,30,06,44,2.60
2016,03,30,06,45,2.60
2016,03,30,06,46,2.60
2016,03,30,06,47,2.60
2016,03,30,06,48,2.60
2016,03,30,06,49,2.60
2016,03,30,06,50,2.60
2016,03,30,06,51,2.60
2016,03,30,06,52,2.60
2016,03,30,06,53,2.60
2016,03,30,06,54,2.60
2016,03,30,06,55,2.60
2016,03,30,06,56,2.60
2016,03,30,06,57,2.60
2016,03,30,06,58,2.60
2016,03,30,06,59,2.60
2016,03,30,07,00,2.60
2016,03,30,07,01,2.60
2016,03,30,07,02,2.60
2016,03,30,07,03,2.60
2016,03,30,07,04,2.60
2016,03,30,07,05,2.60
2016,03,30,07,06,2.60
2016,03,30,07,07,2.60
2016,03,30,07,08,2.60
2016,03,30,07,09,2.60
2016,03,30,07,10,2.60
2016,03,30,07,11,2.60
2016,03,30,07,12,2.60
2016,03,30,07,13,2.60
2016,03,30,07,14,2.60
2016,03,30,07,15,2.60
2016,03,30,07,16,2.60
2016,03,30,07,17,2.60
2016,03,30,07,18,2.60
2016,03,30,07,19,2.60
2016,03,30,07,20,2.60
2016,03,30,07,21,2.60
2016,03,30,07,22,2.60
2016,03,30,07,23,2.60
2016,03,30,07,24,2.60
2016,03,30,07,25,2.60
2016,03,30,07,26,2.60
2016,03,30,07,27,2.60
2016,03,30,07,28,2.60
2016,03,30,07,29,2.60
2016,03,30,07,30,2.60
2016,03,30,07,31,2.60
2016,03,30,07,32,2.60
2016,03,30,07,33,2.60
2016,03,30,07,34,2.60
2016,03,30,07,35,2.60
2016,03,30,07,36,2.70
2016,03,30,07,37,2.70
2016,03,30,07,38,2.70
2016,03,30,07,39,2.70
2016,03,30,07,40,2.70
2016,03,30,07,41,2.70
2016,03,30,07,42,2.70
2016,03,30,07,43,2.70
2016,03,30,07,44,2.70
2016,03,30,07,45,2.70
2016,03,30,07,46,2.70
2016,03,30,07,47,2.70
2016,03,30,07,48,2.70
2016,03,30,07,49,2.70
2016,03,30,07,50,2.70
2016,03,30,07,51,2.70
2016,03,30,07,52,2.80
2016,03,30,07,53,2.80
2016,03,30,07,54,2.80
2016,03,30,07,55,2.80
2016,03,30,07,56,2.80
2016,03,30,07,57,2.80
2016,03,30,07,58,2.90
2016,03,30,07,59,2.90
2016,03,30,08,00,2.90
2016,03,30,08,01,2.90
2016,03,30,08,02,2.90
2016,03,30,08,03,3.00
2016,03,30,08,04,3.00
2016,03,30,08,05,3.00
2016,03,30,08,06,3.10
2016,03,30,08,07,3.10
2016,03,30,08,08,3.10
2016,03,30,08,09,3.10
2016,03,30,08,10,3.20
2016,03,30,08,11,3.20
2016,03,30,08,12,3.20
2016,03,30,08,13,3.30
2016,03,30,08,14,3.30
2016,03,30,08,15,3.30
2016,03,30,08,16,3.40
2016,03,30,08,17,3.40
2016,03,30,08,18,3.50
2016,03,30,08,19,3.50
2016,03,30,08,20,3.60
2016,03,30,08,21,3.60
2016,03,30,08,22,3.70
2016,03,30,08,23,3.70
2016,03,30,08,24,3.70
2016,03,30,08,25,3.80
2016,03,30,08,26,3.90
2016,03,30,08,27,3.90
2016,03,30,08,28,4.00
2016,03,30,08,29,4.10
2016,03,30,08,30,4.20
2016,03,30,08,31,4.30
2016,03,30,08,32,4.40
2016,03,30,08,33,4.50
2016,03,30,08,34,4.60
2016,03,30,08,35,4.70
2016,03,30,08,36,4.80
2016,03,30,08,37,4.90
2016,03,30,08,38,5.00
2016,03,30,08,39,5.10
2016,03,30,08,40,5.20
2016,03,30,08,41,5.30
2016,03,30,08,42,5.40
2016,03,30,08,43,5.50
2016,03,30,08,44,5.60
2016,03,30,08,45,5.70
2016,03,30,08,46,5.80
2016,03,30,08,47,5.90
2016,03,30,08,48,6.10
2016,03,30,08,49,6.20
2016,03,30,08,50,6.30
2016,03,30,08,51,6.30
2016,03,30,08,52,6.40
2016,03,30,08,53,6.50
2016,03,30,08,54,6.60
2016,03,30,08,55,6.60
2016,03,30,08,56,6.70
2016,03,30,08,57,6.80
2016,03,30,08,58,6.90
2016,03,30,08,59,7.00
2016,03,30,09,00,7.10
2016,03,30,09,01,7.20
2016,03,30,09,02,7.30
2016,03,30,09,03,7.50
2016,03,30,09,04,7.70
2016,03,30,09,05,7.80
2016,03,30,09,06,7.90
2016,03,30,09,07,8.10
2016,03,30,09,08,8.30
2016,03,30,09,09,8.50
2016,03,30,09,10,8.60
2016,03,30,09,11,8.70
2016,03,30,09,12,8.90
2016,03,30,09,13,9.10
2016,03,30,09,14,9.30
2016,03,30,09,15,9.40
2016,03,30,09,16,9.50
2016,03,30,09,17,9.70
2016,03,30,09,18,9.90
2016,03,30,09,19,10.00
2016,03,30,09,20,10.10
2016,03,30,09,21,10.20
2016,03,30,09,22,10.30
2016,03,30,09,23,10.40
2016,03,30,09,24,10.50
2016,03,30,09,25,10.60
2016,03,30,09,26,10.70
2016,03,30,09,27,10.80
2016,03,30,09,28,11.00
2016,03,30,09,29,11.10
2016,03,30,09,30,11.30
2016,03,30,09,31,11.40
2016,03,30,09,32,11.50
2016,03,30,09,33,11.60
2016,03,30,09,34,11.70
2016,03,30,09,35,11.80
2016,03,30,09,36,11.90
2016,03,30,09,37,12.00
2016,03,30,09,38,12.10
2016,03,30,09,39,12.10
2016,03,30,09,40,12.20
2016,03,30,09,41,12.30
2016,03,30,09,42,12.30
2016,03,30,09,43,12.30
2016,03,30,09,44,12.40
2016,03,30,09,45,12.40
2016,03,30,09,46,12.50
2016,03,30,09,47,12.50
2016,03,30,09,48,12.50
2016,03,30,09,49,12.60
2016,03,30,09,50,12.60
2016,03,30,09,51,12.60
2016,03,30,09,52,12.60
2016,03,30,09,53,12.60
2016,03,30,09,54,12.70
2016,03,30,09,55,12.70
2016,03,30,09,56,12.70
2016,03,30,09,57,12.70
2016,03,30,09,58,12.70
2016,03,30,09,59,12.70
2016,03,30,10,00,12.70
2016,03,30,10,01,12.70
2016,03,30,10,02,12.80
2016,03,30,10,03,12.80
2016,03,30,10,04,12.80
2016,03,30,10,05,12.80
2016,03,30,10,06,12.80
2016,03,30,10,07,12.90
2016,03,30,10,08,12.90
2016,03,30,10,09,12.90
2016,03,30,10,10,12.90
2016,03,30,10,11,12.90
2016,03,30,10,12,13.00
2016,03,30,10,13,13.00
2016,03,30,10,14,13.00
2016,03,30,10,15,13.10
2016,03,30,10,16,13.10
2016,03,30,10,17,13.10
2016,03,30,10,18,13.10
2016,03,30,10,19,13.20
2016,03,30,10,20,13.20
2016,03,30,10,21,13.30
2016,03,30,10,22,13.30
2016,03,30,10,23,13.30
2016,03,30,10,24,13.30
2016,03,30,10,25,13.40
2016,03,30,10,26,13.40
2016,03,30,10,27,13.40
2016,03,30,10,28,13.40
2016,03,30,10,29,13.40
2016,03,30,10,30,13.40
2016,03,30,10,31,13.50
2016,03,30,10,32,13.50
2016,03,30,10,33,13.50
2016,03,30,10,34,13.60
2016,03,30,10,35,13.60
2016,03,30,10,36,13.60
2016,03,30,10,37,13.60
2016,03,30,10,38,13.60
2016,03,30,10,39,13.70
2016,03,30,10,40,13.70
2016,03,30,10,41,13.70
2016,03,30,10,42,13.80
2016,03,30,10,43,13.80
2016,03,30,10,44,13.80
2016,03,30,10,45,13.90
2016,03,30,10,46,13.90
2016,03,30,10,47,13.90
2016,03,30,10,48,14.00
2016,03,30,10,49,14.00
2016,03,30,10,50,14.00
2016,03,30,10,51,14.10
2016,03,30,10,52,14.10
2016,03,30,10,53,14.10
2016,03,30,10,54,14.20
2016,03,30,10,55,14.20
2016,03,30,10,56,14.30
2016,03,30,10,57,14.40
2016,03,30,10,58,14.40
2016,03,30,10,59,14.50
2016,03,30,11,00,14.50
2016,03,30,11,01,14.60
2016,03,30,11,02,14.60
2016,03,30,11,03,14.70
2016,03,30,11,04,14.80
2016,03,30,11,05,14.80
2016,03,30,11,06,15.00
2016,03,30,11,07,15.00
2016,03,30,11,08,15.00
2016,03,30,11,09,15.00
2016,03,30,11,10,15.00
2016,03,30,11,11,15.20
2016,03,30,11,12,15.20
2016,03,30,11,13,15.30
2016,03,30,11,14,15.30
2016,03,30,11,15,15.20
2016,03,30,11,16,15.10
2016,03,30,11,17,15.00
2016,03,30,11,18,15.00
2016,03,30,11,19,15.00
2016,03,30,11,20,15.00
2016,03,30,11,21,15.00
2016,03,30,11,22,15.00
2016,03,30,11,23,15.00
2016,03,30,11,24,15.00
2016,03,30,11,25,15.00
2016,03,30,11,26,15.00
2016,03,30,11,27,15.00
2016,03,30,11,28,15.10
2016,03,30,11,29,15.20
2016,03,30,11,30,15.20
2016,03,30,11,31,15.30
2016,03,30,11,32,15.30
2016,03,30,11,33,15.30
2016,03,30,11,34,15.30
2016,03,30,11,35,15.30
2016,03,30,11,36,15.30
2016,03,30,11,37,15.30
2016,03,30,11,38,15.40
2016,03,30,11,39,15.40
2016,03,30,11,40,15.40
2016,03,30,11,41,15.40
2016,03,30,11,42,15.40
2016,03,30,11,43,15.40
2016,03,30,11,44,15.40
2016,03,30,11,45,15.40
2016,03,30,11,46,15.40
2016,03,30,11,47,15.50
2016,03,30,11,48,15.50
2016,03,30,11,49,15.60
2016,03,30,11,50,15.60
2016,03,30,11,51,15.60
2016,03,30,11,52,15.60
2016,03,30,11,53,15.60
2016,03,30,11,54,15.70
2016,03,30,11,55,15.70
2016,03,30,11,56,15.80
2016,03,30,11,57,15.90
2016,03,30,11,58,15.90
2016,03,30,11,59,16.00
2016,03,30,12,00,16.10
2016,03,30,12,01,16.20
2016,03,30,12,02,16.30
2016,03,30,12,03,16.30
2016,03,30,12,04,16.40
2016,03,30,12,05,16.40
2016,03,30,12,06,16.50
2016,03,30,12,07,16.50
2016,03,30,12,08,16.60
2016,03,30,12,09,16.60
2016,03,30,12,10,16.60
2016,03,30,12,11,16.70
2016,03,30,12,12,16.70
2016,03,30,12,13,16.70
2016,03,30,12,14,16.70
2016,03,30,12,15,16.70
2016,03,30,12,16,16.70
2016,03,30,12,17,16.70
2016,03,30,12,18,16.80
2016,03,30,12,19,16.80
2016,03,30,12,20,16.90
2016,03,30,12,21,16.90
2016,03,30,12,22,17.00
2016,03,30,12,23,17.10
2016,03,30,12,24,17.20
2016,03,30,12,25,17.20
2016,03,30,12,26,17.30
2016,03,30,12,27,17.30
2016,03,30,12,28,17.30
2016,03,30,12,29,17.40
2016,03,30,12,30,17.50
2016,03,30,12,31,17.60
2016,03,30,12,32,17.60
2016,03,30,12,33,17.70
2016,03,30,12,34,17.70
2016,03,30,12,35,17.60
2016,03,30,12,36,17.60
2016,03,30,12,37,17.60
2016,03,30,12,38,17.60
2016,03,30,12,39,17.70
2016,03,30,12,40,17.70
2016,03,30,12,41,17.70
2016,03,30,12,42,17.70
2016,03,30,12,43,17.70
2016,03,30,12,44,17.70
2016,03,30,12,45,17.70
2016,03,30,12,46,17.80
2016,03,30,12,47,17.80
2016,03,30,12,48,17.80
2016,03,30,12,49,17.80
2016,03,30,12,50,17.80
2016,03,30,12,51,17.80
2016,03,30,12,52,17.80
2016,03,30,12,53,17.80
2016,03,30,12,54,17.80
2016,03,30,12,55,17.80
2016,03,30,12,56,17.90
2016,03,30,12,57,17.90
2016,03,30,12,58,17.90
2016,03,30,12,59,17.90
2016,03,30,13,00,17.90
2016,03,30,13,01,17.90
2016,03,30,13,02,17.90
2016,03,30,13,03,17.90
2016,03,30,13,04,17.90
2016,03,30,13,05,18.00
2016,03,30,13,06,18.00
2016,03,30,13,07,18.10
2016,03,30,13,08,18.10
2016,03,30,13,09,18.10
2016,03,30,13,10,18.10
2016,03,30,13,11,18.20
2016,03,30,13,12,18.30
2016,03,30,13,13,18.40
2016,03,30,13,14,18.50
2016,03,30,13,15,18.60
2016,03,30,13,16,18.70
2016,03,30,13,17,18.70
2016,03,30,13,18,18.80
2016,03,30,13,19,18.80
2016,03,30,13,20,18.90
2016,03,30,13,21,19.00
2016,03,30,13,22,19.00
2016,03,30,13,23,19.20
2016,03,30,13,24,19.20
2016,03,30,13,25,19.30
2016,03,30,13,26,19.40
2016,03,30,13,27,19.50
2016,03,30,13,28,19.50
2016,03,30,13,29,19.50
2016,03,30,13,30,19.50
2016,03,30,13,31,19.40
2016,03,30,13,32,19.30
2016,03,30,13,33,19.30
2016,03,30,13,34,19.30
2016,03,30,13,35,19.30
2016,03,30,13,36,19.30
2016,03,30,13,37,19.30
2016,03,30,13,38,19.20
2016,03,30,13,39,19.10
2016,03,30,13,40,19.00
2016,03,30,13,41,19.00
2016,03,30,13,42,18.90
2016,03,30,13,43,18.90
2016,03,30,13,44,18.80
2016,03,30,13,45,18.70
2016,03,30,13,46,18.60
2016,03,30,13,47,18.60
2016,03,30,13,48,18.60
2016,03,30,13,49,18.60
2016,03,30,13,50,18.80
2016,03,30,13,51,18.90
2016,03,30,13,52,19.10
2016,03,30,13,53,19.10
2016,03,30,13,54,19.20
2016,03,30,13,55,19.30
2016,03,30,13,56,19.40
2016,03,30,13,57,19.50
2016,03,30,13,58,19.50
2016,03,30,13,59,19.50
2016,03,30,14,00,19.50
2016,03,30,14,01,19.50
2016,03,30,14,02,19.50
2016,03,30,14,03,19.40
2016,03,30,14,04,19.50
2016,03,30,14,05,19.60
2016,03,30,14,06,19.60
2016,03,30,14,07,19.70
2016,03,30,14,08,19.70
2016,03,30,14,09,19.80
2016,03,30,14,10,19.90
2016,03,30,14,11,19.90
2016,03,30,14,12,19.90
2016,03,30,14,13,20.00
2016,03,30,14,14,20.00
2016,03,30,14,15,20.10
2016,03,30,14,16,20.10
2016,03,30,14,17,20.20
2016,03,30,14,18,20.20
2016,03,30,14,19,20.20
2016,03,30,14,20,20.20
2016,03,30,14,21,20.20
2016,03,30,14,22,20.20
2016,03,30,14,23,20.20
2016,03,30,14,24,20.10
2016,03,30,14,25,20.00
2016,03,30,14,26,19.90
2016,03,30,14,27,19.90
2016,03,30,14,28,19.80
2016,03,30,14,29,19.70
2016,03,30,14,30,19.70
2016,03,30,14,31,19.60
2016,03,30,14,32,19.60
2016,03,30,14,33,19.60
2016,03,30,14,34,19.60
2016,03,30,14,35,19.70
2016,03,30,14,36,19.70
2016,03,30,14,37,19.70
2016,03,30,14,38,19.70
2016,03,30,14,39,19.70
2016,03,30,14,40,19.70
2016,03,30,14,41,19.70
2016,03,30,14,42,19.70
2016,03,30,14,43,19.70
2016,03,30,14,44,19.70
2016,03,30,14,45,19.70
2016,03,30,14,46,19.70
2016,03,30,14,47,19.70
2016,03,30,14,48,19.70
2016,03,30,14,49,19.80
2016,03,30,14,50,19.80
2016,03,30,14,51,19.80
2016,03,30,14,52,19.80
2016,03,30,14,53,19.80
2016,03,30,14,54,19.80
2016,03,30,14,55,19.80
2016,03,30,14,56,19.80
2016,03,30,14,57,19.70
2016,03,30,14,58,19.70
2016,03,30,14,59,19.70
2016,03,30,15,00,19.80
2016,03,30,15,01,19.80
2016,03,30,15,02,19.90
2016,03,30,15,03,20.00
2016,03,30,15,04,20.10
2016,03,30,15,05,20.20
2016,03,30,15,06,20.30
2016,03,30,15,07,20.40
2016,03,30,15,08,20.40
2016,03,30,15,09,20.50
2016,03,30,15,10,20.50
2016,03,30,15,11,20.60
2016,03,30,15,12,20.60
2016,03,30,15,13,20.60
2016,03,30,15,14,20.60
2016,03,30,15,15,20.70
2016,03,30,15,16,20.70
2016,03,30,15,17,20.80
2016,03,30,15,18,20.80
2016,03,30,15,19,20.80
2016,03,30,15,20,20.80
2016,03,30,15,21,20.80
2016,03,30,15,22,20.80
2016,03,30,15,23,20.90
2016,03,30,15,24,20.80
2016,03,30,15,25,20.80
2016,03,30,15,26,20.70
2016,03,30,15,27,20.70
2016,03,30,15,28,20.60
2016,03,30,15,29,20.50
2016,03,30,15,30,20.40
2016,03,30,15,31,20.20
2016,03,30,15,32,20.20
2016,03,30,15,33,20.10
2016,03,30,15,34,20.20
2016,03,30,15,35,20.20
2016,03,30,15,36,20.20
2016,03,30,15,37,20.20
2016,03,30,15,38,20.00
2016,03,30,15,39,19.90
2016,03,30,15,40,19.80
2016,03,30,15,41,19.80
2016,03,30,15,42,19.70
2016,03,30,15,43,19.70
2016,03,30,15,44,19.70
2016,03,30,15,45,19.70
2016,03,30,15,46,19.70
2016,03,30,15,47,19.70
2016,03,30,15,48,19.70
2016,03,30,15,49,19.70
2016,03,30,15,50,19.80
2016,03,30,15,51,19.80
2016,03,30,15,52,19.70
2016,03,30,15,53,19.70
2016,03,30,15,54,19.70
2016,03,30,15,55,19.70
2016,03,30,15,56,19.70
2016,03,30,15,57,19.70
2016,03,30,15,58,19.70
2016,03,30,15,59,19.70
2016,03,30,16,00,19.70
2016,03,30,16,01,19.70
2016,03,30,16,02,19.70
2016,03,30,16,03,19.70
2016,03,30,16,04,19.70
2016,03,30,16,05,19.70
2016,03,30,16,06,19.70
2016,03,30,16,07,19.70
2016,03,30,16,08,19.70
2016,03,30,16,09,19.70
2016,03,30,16,10,19.70
2016,03,30,16,11,19.60
2016,03,30,16,12,19.60
2016,03,30,16,13,19.60
2016,03,30,16,14,19.60
2016,03,30,16,15,19.50
2016,03,30,16,16,19.50
2016,03,30,16,17,19.50
2016,03,30,16,18,19.50
2016,03,30,16,19,19.50
2016,03,30,16,20,19.50
2016,03,30,16,21,19.50
2016,03,30,16,22,19.50
2016,03,30,16,23,19.50
2016,03,30,16,24,19.50
2016,03,30,16,25,19.50
2016,03,30,16,26,19.50
2016,03,30,16,27,19.50
2016,03,30,16,28,19.50
2016,03,30,16,29,19.50
2016,03,30,16,30,19.50
2016,03,30,16,31,19.50
2016,03,30,16,32,19.50
2016,03,30,16,33,19.40
2016,03,30,16,34,19.40
2016,03,30,16,35,19.40
2016,03,30,16,36,19.40
2016,03,30,16,37,19.40
2016,03,30,16,38,19.40
2016,03,30,16,39,19.40
2016,03,30,16,40,19.40
2016,03,30,16,41,19.40
2016,03,30,16,42,19.40
2016,03,30,16,43,19.40
2016,03,30,16,44,19.40
2016,03,30,16,45,19.40
2016,03,30,16,46,19.40
2016,03,30,16,47,19.30
2016,03,30,16,48,19.30
2016,03,30,16,49,19.30
2016,03,30,16,50,19.30
2016,03,30,16,51,19.30
2016,03,30,16,52,19.30
2016,03,30,16,53,19.30
2016,03,30,16,54,19.30
2016,03,30,16,55,19.30
2016,03,30,16,56,19.30
2016,03,30,16,57,19.30
2016,03,30,16,58,19.30
2016,03,30,16,59,19.30
2016,03,30,17,00,19.30
2016,03,30,17,01,19.30
2016,03,30,17,02,19.20
2016,03,30,17,03,19.20
2016,03,30,17,04,19.20
2016,03,30,17,05,19.20
2016,03,30,17,06,19.10
2016,03,30,17,07,19.10
2016,03,30,17,08,19.10
2016,03,30,17,09,19.00
2016,03,30,17,10,19.00
2016,03,30,17,11,19.00
2016,03,30,17,12,18.90
2016,03,30,17,13,18.90
2016,03,30,17,14,18.90
2016,03,30,17,15,18.90
2016,03,30,17,16,18.90
2016,03,30,17,17,18.90
2016,03,30,17,18,18.90
2016,03,30,17,19,18.80
2016,03,30,17,20,18.80
2016,03,30,17,21,18.80
2016,03,30,17,22,18.80
2016,03,30,17,23,18.80
2016,03,30,17,24,18.80
2016,03,30,17,25,18.80
2016,03,30,17,26,18.80
2016,03,30,17,27,18.80
2016,03,30,17,28,18.80
2016,03,30,17,29,18.80
2016,03,30,17,30,18.80
2016,03,30,17,31,18.80
2016,03,30,17,32,18.80
2016,03,30,17,33,18.80
2016,03,30,17,34,18.80
2016,03,30,17,35,18.80
2016,03,30,17,36,18.80
2016,03,30,17,37,18.80
2016,03,30,17,38,18.80
2016,03,30,17,39,18.80
2016,03,30,17,40,18.80
2016,03,30,17,41,18.80
2016,03,30,17,42,18.90
2016,03,30,17,43,18.90